When you browse on this site, cookies collect data to enhance your experience and personalize the content and advertising you see.
Visit our Privacy Policy to learn more. By continuing to use the site, you agree to this use of cookies and data.
  • In Hungary
  • List of Countries
  • For 7 days
  • Water Temperature
  • Weather Map
  • News
  • Weather Widgets
  • user-avatar
    Login

    Hourly Weather El Centro

    Today, 22 November, Friday

    Time Temperature Precipitation Wind Pressure Humidity
    00:00 +16°C° 0 mm 1 mps 764 mmHg 62%
    01:00 +15°C° 0 mm 0 mps 764 mmHg 63%
    02:00 +15°C° 0 mm 1 mps 764 mmHg 64%
    03:00 +15°C° 0 mm 1 mps 764 mmHg 66%
    04:00 +15°C° 0 mm 1 mps 765 mmHg 68%
    05:00 +15°C° 0 mm 1 mps 765 mmHg 67%
    06:00 +14°C° 0 mm 0 mps 765 mmHg 66%
    07:00 +14°C° 0 mm 0 mps 766 mmHg 65%
    08:00 +18°C° 0 mm 1 mps 766 mmHg 59%
    09:00 +19°C° 0 mm 1 mps 766 mmHg 53%
    10:00 +21°C° 0 mm 1 mps 766 mmHg 47%
    11:00 +20°C° 0 mm 2 mps 766 mmHg 44%
    12:00 +21°C° 0 mm 2 mps 765 mmHg 41%
    13:00 +23°C° 0 mm 2 mps 764 mmHg 38%
    14:00 +21°C° 0 mm 2 mps 764 mmHg 38%
    15:00 +21°C° 0 mm 2 mps 765 mmHg 39%
    16:00 +21°C° 0 mm 2 mps 765 mmHg 39%
    17:00 +20°C° 0 mm 2 mps 765 mmHg 42%
    18:00 +19°C° 0 mm 2 mps 765 mmHg 45%
    19:00 +17°C° 0 mm 2 mps 765 mmHg 48%
    20:00 +18°C° 0 mm 1 mps 766 mmHg 49%
    21:00 +18°C° 0 mm 1 mps 766 mmHg 50%
    22:00 +16°C° 0 mm 1 mps 766 mmHg 52%
    23:00 +16°C° 0 mm 1 mps 766 mmHg 52%

    Tomorrow, 23 November, Saturday

    Time Temperature Precipitation Wind Pressure Humidity
    00:00 +16°C° 0 mm 1 mps 766 mmHg 53%
    01:00 +15°C° 0 mm 1 mps 765 mmHg 54%
    02:00 +15°C° 0 mm 1 mps 766 mmHg 54%
    03:00 +15°C° 0 mm 1 mps 766 mmHg 54%
    04:00 +15°C° 0 mm 1 mps 766 mmHg 54%
    05:00 +15°C° 0 mm 1 mps 766 mmHg 54%
    06:00 +15°C° 0 mm 1 mps 766 mmHg 54%
    07:00 +16°C° 0 mm 1 mps 766 mmHg 54%
    08:00 +18°C° 0 mm 1 mps 766 mmHg 48%
    09:00 +19°C° 0 mm 2 mps 767 mmHg 42%
    10:00 +21°C° 0 mm 2 mps 767 mmHg 36%
    11:00 +21°C° 0 mm 2 mps 766 mmHg 33%
    12:00 +23°C° 0 mm 2 mps 765 mmHg 31%
    13:00 +22°C° 0 mm 3 mps 765 mmHg 29%
    14:00 +23°C° 0 mm 2 mps 764 mmHg 30%
    15:00 +23°C° 0 mm 2 mps 764 mmHg 31%
    16:00 +21°C° 0 mm 2 mps 764 mmHg 32%
    17:00 +20°C° 0 mm 2 mps 764 mmHg 35%
    18:00 +20°C° 0 mm 1 mps 764 mmHg 37%
    19:00 +19°C° 0 mm 1 mps 765 mmHg 39%
    20:00 +18°C° 0 mm 1 mps 765 mmHg 40%
    21:00 +18°C° 0 mm 1 mps 765 mmHg 40%
    22:00 +18°C° 0 mm 1 mps 765 mmHg 40%
    23:00 +18°C° 0 mm 1 mps 765 mmHg 40%

    Day after tomorrow, 24 November, Sunday

    Time Temperature Precipitation Wind Pressure Humidity
    00:00 +16°C° 0 mm 1 mps 765 mmHg 40%
    01:00 +16°C° 0 mm 1 mps 765 mmHg 39%
    02:00 +16°C° 0 mm 1 mps 764 mmHg 39%
    03:00 +16°C° 0 mm 1 mps 764 mmHg 39%
    04:00 +16°C° 0 mm 1 mps 764 mmHg 39%
    05:00 +16°C° 0 mm 1 mps 764 mmHg 39%
    06:00 +15°C° 0 mm 1 mps 764 mmHg 39%
    07:00 +15°C° 0 mm 1 mps 764 mmHg 40%
    08:00 +19°C° 0 mm 1 mps 765 mmHg 34%
    09:00 +21°C° 0 mm 1 mps 765 mmHg 29%
    10:00 +23°C° 0 mm 1 mps 765 mmHg 24%
    11:00 +24°C° 0 mm 1 mps 764 mmHg 22%
    12:00 +25°C° 0 mm 1 mps 763 mmHg 20%
    13:00 +26°C° 0 mm 2 mps 763 mmHg 19%
    14:00 +25°C° 0 mm 1 mps 762 mmHg 20%
    15:00 +24°C° 0 mm 1 mps 762 mmHg 22%
    16:00 +24°C° 0 mm 1 mps 762 mmHg 24%
    17:00 +22°C° 0 mm 1 mps 762 mmHg 26%
    18:00 +21°C° 0 mm 1 mps 762 mmHg 27%
    19:00 +19°C° 0 mm 1 mps 762 mmHg 29%
    20:00 +17°C° 0 mm 0 mps 762 mmHg 30%
    21:00 +16°C° 0 mm 0 mps 762 mmHg 30%
    22:00 +16°C° 0 mm 0 mps 762 mmHg 31%
    23:00 +16°C° 0 mm 0 mps 761 mmHg 31%

    25 November, Monday

    Time Temperature Precipitation Wind Pressure Humidity
    00:00 +16°C° 0 mm 0 mps 761 mmHg 31%
    01:00 +16°C° 0 mm 0 mps 760 mmHg 31%
    02:00 +15°C° 0 mm 0 mps 760 mmHg 31%
    03:00 +15°C° 0 mm 0 mps 760 mmHg 32%
    04:00 +15°C° 0 mm 0 mps 760 mmHg 32%
    05:00 +16°C° 0 mm 1 mps 760 mmHg 32%
    06:00 +18°C° 0 mm 1 mps 760 mmHg 31%
    07:00 +17°C° 0 mm 2 mps 759 mmHg 31%
    08:00 +19°C° 0 mm 2 mps 760 mmHg 28%
    09:00 +21°C° 0 mm 2 mps 760 mmHg 24%
    10:00 +24°C° 0 mm 2 mps 760 mmHg 21%
    11:00 +25°C° 0 mm 3 mps 759 mmHg 19%
    12:00 +26°C° 0 mm 5 mps 758 mmHg 17%
    13:00 +27°C° 0 mm 6 mps 757 mmHg 16%
    14:00 +26°C° 0 mm 6 mps 756 mmHg 18%
    15:00 +24°C° 0 mm 6 mps 755 mmHg 20%
    16:00 +23°C° 0 mm 6 mps 755 mmHg 23%
    17:00 +22°C° 0 mm 6 mps 755 mmHg 26%
    18:00 +21°C° 0 mm 6 mps 755 mmHg 29%
    19:00 +19°C° 0 mm 5 mps 756 mmHg 33%
    20:00 +19°C° 0 mm 5 mps 756 mmHg 36%
    21:00 +18°C° 0 mm 4 mps 757 mmHg 40%
    22:00 +17°C° 0 mm 4 mps 757 mmHg 44%
    23:00 +17°C° 0 mm 3 mps 757 mmHg 46%

    26 November, Tuesday

    Time Temperature Precipitation Wind Pressure Humidity
    00:00 +16°C° 0 mm 3 mps 756 mmHg 48%
    01:00 +16°C° 0 mm 3 mps 756 mmHg 50%
    02:00 +14°C° 0 mm 3 mps 756 mmHg 50%
    03:00 +15°C° 0 mm 2 mps 756 mmHg 49%
    04:00 +15°C° 0 mm 2 mps 756 mmHg 49%
    05:00 +15°C° 0 mm 2 mps 756 mmHg 48%
    06:00 +15°C° 0 mm 1 mps 756 mmHg 47%
    07:00 +14°C° 0 mm 1 mps 756 mmHg 46%
    08:00 +18°C° 0 mm 1 mps 756 mmHg 38%
    09:00 +20°C° 0 mm 1 mps 756 mmHg 30%
    10:00 +22°C° 0 mm 1 mps 756 mmHg 22%
    11:00 +22°C° 0 mm 1 mps 755 mmHg 20%
    12:00 +23°C° 0 mm 1 mps 754 mmHg 19%
    13:00 +24°C° 0 mm 1 mps 753 mmHg 17%
    14:00 +23°C° 0 mm 2 mps 753 mmHg 19%
    15:00 +23°C° 0 mm 2 mps 752 mmHg 22%
    16:00 +21°C° 0 mm 2 mps 752 mmHg 24%
    17:00 +20°C° 0 mm 3 mps 752 mmHg 31%
    18:00 +19°C° 0 mm 4 mps 752 mmHg 37%
    19:00 +17°C° 0 mm 5 mps 752 mmHg 44%
    20:00 +18°C° 0 mm 4 mps 752 mmHg 47%
    21:00 +17°C° 0 mm 4 mps 752 mmHg 50%
    22:00 +16°C° 0 mm 3 mps 752 mmHg 52%
    23:00 +15°C° 0 mm 4 mps 752 mmHg 51%

    27 November, Wednesday

    Time Temperature Precipitation Wind Pressure Humidity
    00:00 +15°C° 0 mm 5 mps 752 mmHg 50%
    01:00 +16°C° 0 mm 6 mps 752 mmHg 49%
    02:00 +15°C° 0 mm 5 mps 752 mmHg 49%
    03:00 +15°C° 0 mm 5 mps 752 mmHg 49%
    04:00 +15°C° 0 mm 4 mps 752 mmHg 49%
    05:00 +14°C° 0 mm 4 mps 752 mmHg 50%
    06:00 +14°C° 0 mm 4 mps 753 mmHg 51%
    07:00 +14°C° 0 mm 3 mps 753 mmHg 53%
    08:00 +17°C° 0 mm 3 mps 753 mmHg 46%
    09:00 +19°C° 0 mm 3 mps 754 mmHg 40%
    10:00 +20°C° 0 mm 4 mps 754 mmHg 34%
    11:00 +21°C° 0 mm 3 mps 754 mmHg 34%
    12:00 +22°C° 0 mm 3 mps 753 mmHg 33%
    13:00 +24°C° 0 mm 3 mps 753 mmHg 32%
    14:00 +22°C° 0 mm 4 mps 753 mmHg 37%
    15:00 +21°C° 0 mm 4 mps 753 mmHg 42%
    16:00 +20°C° 0 mm 4 mps 753 mmHg 47%
    17:00 +19°C° 0.1 mm 4 mps 754 mmHg 51%
    18:00 +19°C° 0.1 mm 3 mps 754 mmHg 55%
    19:00 +18°C° 0.1 mm 3 mps 755 mmHg 59%
    20:00 +18°C° 0.1 mm 3 mps 755 mmHg 62%
    21:00 +17°C° 0.1 mm 3 mps 755 mmHg 66%
    22:00 +17°C° 0.1 mm 3 mps 755 mmHg 69%
    23:00 +17°C° 0 mm 3 mps 755 mmHg 69%
    Show more